Weather observations for the past three days for
Newberry County Airport
Imperial (Metric)
Date Time (edt) Wind (mph) Vis. (mi.) Weather Sky Cond. Temperature (ºF) Relative Humidity Wind Chill (°F) Heat Index (°F) Pressure Precipitation (in)
Air Dwpt 6 hour altimeter (in) sea level (mb) 1 hr 3 hr 6 hr
Max. Min.
05 23:55 SE 8 10.00 Fair CLR 68 51.8 56% 30.01 0.0
05 23:35 SE 7 G 16 10.00 Fair CLR 68 51.8 56% 30.01 0.0
05 23:15 SE 10 G 16 10.00 Fair CLR 69.8 51.8 53% 30.01 0.0
05 22:55 SE 7 G 16 10.00 Fair CLR 69.8 51.8 53% 30 0.0
05 22:35 SE 7 G 16 10.00 Fair CLR 69.8 50 50% 29.99 0.0
05 22:15 SE 8 G 17 10.00 Fair CLR 69.8 48.2 46% 29.99 0.0
05 21:55 SE 3 10.00 Fair CLR 69.8 48.2 46% 29.99 0.0
05 21:35 SE 3 10.00 Fair CLR 69.8 48.2 46% 30 0.0
05 21:15 SE 3 10.00 Fair CLR 69.8 48.2 46% 29.99 0.0
05 20:55 SE 3 10.00 Fair CLR 69.8 46.4 43% 29.99 0.0
05 20:35 Calm 10.00 Fair CLR 71.6 46.4 41% 29.98 0.0
05 20:15 SE 3 10.00 Fair CLR 73.4 44.6 36% 29.97 0.0
05 19:55 SE 3 10.00 Fair CLR 77 44.6 32% 78 29.97 0.0
05 19:35 S 5 10.00 Fair CLR 77 44.6 32% 78 29.97 0.0
05 19:15 S 7 10.00 Fair CLR 78.8 42.8 28% 78 29.96 0.0
05 18:55 SE 7 10.00 Fair CLR 78.8 42.8 28% 78 29.97 0.0
05 18:35 S 9 10.00 Fair CLR 78.8 42.8 28% 78 29.98 0.0
05 18:15 S 7 G 16 10.00 Fair CLR 78.8 44.6 30% 79 29.97 0.0
05 17:55 S 8 10.00 Fair CLR 78.8 42.8 28% 78 29.97 0.0
05 17:35 S 8 10.00 Fair CLR 80.6 42.8 26% 79 29.98 0.0
05 17:15 S 10 10.00 Fair CLR 80.6 42.8 26% 79 29.98 0.0
05 16:55 S 12 10.00 Fair CLR 80.6 42.8 26% 79 29.98 0.0
05 16:35 S 12 G 17 10.00 Fair CLR 78.8 42.8 28% 78 29.99 0.0
05 16:15 S 10 G 16 10.00 Fair CLR 80.6 42.8 26% 79 30 0.0
05 15:55 S 12 G 17 10.00 Fair CLR 80.6 41 24% 79 30.01 0.0
05 15:35 S 9 G 17 10.00 Fair CLR 78.8 41 26% 78 30.01 0.0
05 15:15 S 14 10.00 Fair CLR 78.8 41 26% 78 30.02 0.0
05 14:55 S 6 10.00 Fair CLR 78.8 41 26% 78 30.02 0.0
05 14:35 S 15 10.00 Fair CLR 78.8 42.8 28% 78 30.04 0.0
05 14:15 S 12 G 17 10.00 Fair CLR 78.8 42.8 28% 78 30.05 0.0
05 13:55 S 16 G 23 10.00 Fair CLR 78.8 41 26% 78 30.06 0.0
05 13:35 S 13 G 20 10.00 Fair CLR 78.8 41 26% 78 30.05 0.0
05 13:15 SW 10 G 21 10.00 Fair CLR 78.8 41 26% 78 30.05 0.0
05 12:55 S 9 G 16 10.00 Fair CLR 77 42.8 30% 78 30.06 0.0
05 12:35 SW 13 G 22 10.00 Fair CLR 77 39.2 26% 77 30.07 0.0
05 12:15 S 15 G 21 10.00 Fair CLR 77 42.8 30% 78 30.07 0.0
05 11:35 S 8 10.00 Fair CLR 73.4 50 44% 30.08 0.0
05 11:15 S 7 G 12 10.00 Fair CLR 73.4 51.8 47% 30.08 0.0
05 10:55 S 9 10.00 Fair CLR 71.6 51.8 50% 30.08 0.0
05 10:35 S 12 10.00 Fair CLR 71.6 53.6 53% 30.08 0.0
05 10:15 S 10 10.00 Fair CLR 69.8 53.6 57% 30.08 0.0
05 09:55 S 10 G 18 10.00 Fair CLR 68 53.6 60% 30.08 0.0
05 09:35 S 10 10.00 Fair CLR 68 53.6 60% 30.07 0.0
05 09:15 S 8 10.00 Fair CLR 64.4 53.6 68% 30.07 0.0
05 08:55 S 7 10.00 Fair CLR 62.6 51.8 68% 30.08 0.0
05 08:35 S 7 10.00 Fair CLR 60.8 51.8 72% 30.08 0.0
05 08:15 S 5 10.00 Fair CLR 59 50 72% 30.07 0.0
05 07:55 SE 5 10.00 Fair CLR 57.2 50 77% 30.07 0.0
05 07:35 SE 3 10.00 Fair CLR 53.6 50 88% 30.06 0.0
05 07:15 SE 3 10.00 Fair CLR 51.8 48.2 88% 30.06 0.0
05 06:55 S 5 10.00 Fair CLR 51.8 48.2 88% 30.05 0.0
05 06:35 SE 6 10.00 Fair CLR 51.8 46.4 82% 30.05 0.0
05 06:15 S 3 10.00 Fair CLR 51.8 46.4 82% 30.04 0.0
05 05:55 S 3 10.00 Fair CLR 51.8 46.4 82% 30.04 0.0
05 05:35 S 5 10.00 Fair CLR 51.8 46.4 82% 30.04 0.0
05 05:15 S 3 10.00 Fair CLR 51.8 46.4 82% 30.03 0.0
05 04:55 S 5 10.00 Fair CLR 53.6 46.4 77% 30.03 0.0
05 04:35 S 3 10.00 Fair CLR 53.6 46.4 77% 30.03 0.0
05 04:15 S 3 10.00 Fair CLR 55.4 46.4 72% 30.03 0.0
05 03:55 S 3 10.00 Fair CLR 55.4 46.4 72% 30.03 0.0
05 03:35 S 3 10.00 Fair CLR 57.2 46.4 67% 30.03 0.0
05 03:15 S 5 10.00 Fair CLR 59 46.4 63% 30.03 0.0
05 02:55 S 6 10.00 Fair CLR 59 46.4 63% 30.03 0.0
05 02:35 S 8 10.00 Fair CLR 59 46.4 63% 30.03 0.0
05 02:15 S 6 10.00 Fair CLR 59 46.4 63% 30.03 0.0
05 01:55 S 5 10.00 Fair CLR 59 46.4 63% 30.03 0.0
05 01:35 SE 6 10.00 Fair CLR 60.8 46.4 59% 30.04 0.0
05 01:15 SE 5 10.00 Fair CLR 60.8 44.6 55% 30.04 0.0
05 00:55 SE 5 10.00 Fair CLR 60.8 44.6 55% 30.04 0.0
05 00:35 SE 6 10.00 Fair CLR 60.8 44.6 55% 30.04 0.0
05 00:15 SE 5 10.00 Fair CLR 60.8 44.6 55% 30.04 0.0
04 23:55 SE 5 10.00 Fair CLR 62.6 44.6 52% 30.04 0.0
04 23:35 SE 6 10.00 Fair CLR 62.6 42.8 49% 30.05 0.0
04 23:15 SE 6 10.00 Fair CLR 60.8 41 48% 30.04 0.0
04 22:55 SE 5 10.00 Fair CLR 62.6 41 45% 30.04 0.0
04 22:35 SE 5 10.00 Fair CLR 62.6 42.8 49% 30.04 0.0
04 22:15 SE 3 10.00 Fair CLR 62.6 41 45% 30.03 0.0
04 21:55 S 5 10.00 Fair CLR 64.4 41 43% 30.03 0.0
04 21:35 S 5 10.00 Fair CLR 66.2 41 40% 30.03 0.0
04 21:15 S 6 10.00 Fair CLR 68 41 38% 30.02 0.0
04 20:55 S 5 10.00 Fair CLR 68 39.2 35% 30.01 0.0
04 20:35 SE 5 10.00 Fair CLR 69.8 41 35% 30.01 0.0
04 20:15 S 5 10.00 Fair CLR 69.8 39.2 33% 30 0.0
04 19:55 S 5 10.00 Fair CLR 71.6 37.4 29% 30 0.0
04 19:35 S 5 10.00 Fair CLR 73.4 35.6 25% 29.99 0.0
04 19:15 S 5 10.00 Fair CLR 73.4 37.4 27% 29.98 0.0
04 18:55 S 6 10.00 Fair CLR 75.2 33.8 22% 76 29.99 0.0
04 18:35 S 6 10.00 Fair CLR 77 32 19% 77 29.99 0.0
04 18:15 S 9 10.00 Fair CLR 77 32 19% 77 29.99 0.0
04 17:55 S 6 10.00 Fair CLR 78.8 32 18% 78 29.99 0.0
04 17:35 S 8 10.00 Fair CLR 78.8 30.2 17% 78 29.99 0.0
04 17:15 S 7 10.00 Fair CLR 78.8 32 18% 78 29.99 0.0
04 16:55 S 5 10.00 Fair CLR 78.8 32 18% 78 29.99 0.0
04 16:35 Calm 10.00 Fair CLR 78.8 32 18% 78 29.99 0.0
04 16:15 SE 6 7.00 Fair CLR 78.8 32 18% 78 30 0.0
04 15:55 S 9 10.00 Fair CLR 78.8 32 18% 78 30.01 0.0
04 15:35 S 10 10.00 Fair CLR 78.8 32 18% 78 30.02 0.0
04 15:15 SE 6 10.00 Fair CLR 77 33.8 21% 77 30.03 0.0
04 14:55 SE 5 10.00 Fair CLR 77 35.6 22% 77 30.03 0.0
04 14:35 S 9 10.00 Fair CLR 77 35.6 22% 77 30.03 0.0
04 14:15 SW 7 10.00 Fair CLR 75.2 33.8 22% 76 30.04 0.0
04 13:55 S 6 10.00 Fair CLR 75.2 35.6 24% 76 30.05 0.0
04 13:35 SE 6 10.00 Fair CLR 73.4 35.6 25% 30.06 0.0
04 13:15 Calm 10.00 Fair CLR 73.4 33.8 23% 30.06 0.0
04 12:55 SW 6 10.00 Fair CLR 73.4 37.4 27% 30.07 0.0
04 12:35 SW 7 10.00 Fair CLR 71.6 37.4 29% 30.08 0.0
04 12:15 SW 6 10.00 Fair CLR 71.6 41 33% 30.08 0.0
04 11:55 W 5 10.00 Fair CLR 71.6 39.2 31% 30.09 0.0
04 11:35 SW 9 10.00 Fair CLR 69.8 41 35% 30.09 0.0
04 11:15 W 6 10.00 Fair CLR 69.8 41 35% 30.09 0.0
04 10:55 SW 7 10.00 Fair CLR 68 42.8 40% 30.1 0.0
04 10:35 SW 9 10.00 Fair CLR 66.2 42.8 43% 30.1 0.0
04 10:15 SW 7 10.00 Fair CLR 66.2 42.8 43% 30.1 0.0
04 09:55 SW 5 10.00 Fair CLR 62.6 44.6 52% 30.1 0.0
04 09:35 S 5 10.00 Fair CLR 60.8 42.8 52% 30.09 0.0
04 09:15 S 5 10.00 Fair CLR 59 44.6 59% 30.09 0.0
04 08:55 S 5 10.00 Fair CLR 55.4 42.8 63% 30.09 0.0
04 08:35 S 3 10.00 Fair CLR 53.6 42.8 67% 30.09 0.0
04 07:55 S 5 10.00 Fair CLR 51.8 42.8 72% 30.09 0.0
04 07:35 S 3 10.00 Fair CLR 48.2 42.8 82% 30.09 0.0
04 07:15 SE 3 10.00 Fair CLR 46.4 41 82% 30.08 0.0
04 06:55 SE 5 10.00 Fair CLR 44.6 41 87% 43 30.08 0.0
04 06:35 Calm 10.00 Fair CLR 44.6 41 87% 30.08 0.0
04 06:15 Calm 10.00 Fair CLR 44.6 41 87% 30.08 0.0
04 05:55 SE 5 10.00 Fair CLR 44.6 41 87% 43 30.08 0.0
04 05:30 SE 3 10.00 Fair CLR 44.6 41 87% 30.08 0.0
04 05:15 Calm 10.00 Fair CLR 46.4 41 82% 30.08 0.0
04 04:55 Calm 10.00 Fair CLR 46.4 42.8 87% 30.08 0.0
04 04:35 SE 3 10.00 Fair CLR 46.4 41 82% 30.08 0.0
04 04:15 SE 6 10.00 Fair CLR 46.4 41 82% 44 30.07 0.0
04 03:55 Calm 10.00 Fair CLR 46.4 41 82% 30.07 0.0
04 03:35 S 3 10.00 Fair CLR 46.4 41 82% 30.07 0.0
04 03:15 S 3 10.00 Fair CLR 46.4 42.8 87% 30.07 0.0
04 02:55 S 3 10.00 Fair CLR 50 41 71% 30.08 0.0
04 02:35 S 3 10.00 Fair CLR 50 41 71% 30.08 0.0
04 02:15 S 6 10.00 Fair CLR 50 42.8 76% 48 30.08 0.0
04 01:55 S 5 10.00 Fair CLR 46.4 42.8 87% 45 30.08 0.0
04 01:35 Calm 10.00 Fair CLR 51.8 42.8 72% 30.08 0.0
04 01:15 SE 3 10.00 Fair CLR 51.8 42.8 72% 30.08 0.0
04 00:55 SE 3 10.00 Fair CLR 51.8 42.8 72% 30.08 0.0
04 00:35 SE 3 10.00 Fair CLR 51.8 42.8 72% 30.08 0.0
04 00:15 SE 3 10.00 Fair CLR 51.8 42.8 72% 30.08 0.0
03 23:55 SE 3 10.00 Fair CLR 53.6 42.8 67% 30.08 0.0
03 23:35 SE 3 10.00 Fair CLR 53.6 42.8 67% 30.08 0.0
03 23:15 SE 5 10.00 Fair CLR 53.6 42.8 67% 30.08 0.0
03 22:55 SE 5 10.00 Fair CLR 53.6 42.8 67% 30.08 0.0
03 22:35 SE 5 10.00 Fair CLR 53.6 42.8 67% 30.08 0.0
03 22:15 SE 5 10.00 Fair CLR 53.6 42.8 67% 30.08 0.0
03 21:55 SE 5 10.00 Fair CLR 53.6 42.8 67% 30.07 0.0
03 21:35 SE 5 10.00 Fair CLR 53.6 42.8 67% 30.07 0.0
03 21:15 Calm 10.00 Fair CLR 53.6 44.6 72% 30.06 0.0
03 20:55 S 3 10.00 Fair CLR 55.4 42.8 63% 30.06 0.0
03 20:35 Calm 10.00 Fair CLR 59 42.8 55% 30.06 0.0
03 20:15 S 3 10.00 Fair CLR 60.8 42.8 52% 30.05 0.0
03 19:55 SW 5 10.00 Fair CLR 64.4 39.2 40% 30.05 0.0
03 19:35 S 5 10.00 Fair CLR 66.2 37.4 35% 30.05 0.0
03 19:15 S 7 10.00 Fair CLR 68 35.6 30% 30.05 0.0
03 18:55 SW 6 10.00 Fair CLR 68 33.8 28% 30.06 0.0
03 18:35 SW 7 10.00 Fair CLR 68 33.8 28% 30.06 0.0
03 18:15 SW 6 10.00 Fair CLR 69.8 33.8 27% 30.06 0.0
03 17:55 S 6 10.00 Fair CLR 68 33.8 28% 30.06 0.0
03 17:35 SW 7 10.00 Fair CLR 69.8 35.6 29% 30.06 0.0
03 17:15 S 8 10.00 Fair CLR 69.8 33.8 27% 30.06 0.0
03 16:55 W 5 10.00 Fair CLR 69.8 35.6 29% 30.06 0.0
03 16:35 W 7 10.00 Fair CLR 68 33.8 28% 30.07 0.0
03 16:15 W 6 10.00 Fair CLR 68 33.8 28% 30.08 0.0
03 15:55 W 6 G 17 10.00 Fair CLR 68 33.8 28% 30.09 0.0
03 15:35 S 3 10.00 Fair CLR 68 33.8 28% 30.1 0.0
03 15:15 S 10 10.00 Fair CLR 66.2 33.8 30% 30.12 0.0
03 14:55 S 7 10.00 Fair CLR 68 35.6 30% 30.13 0.0
03 14:30 S 8 10.00 Fair CLR 64.4 35.6 34% 30.13 0.0
03 14:15 W 7 10.00 Fair CLR 64.4 35.6 34% 30.14 0.0
03 13:55 Calm 10.00 Fair CLR 64.4 35.6 34% 30.14 0.0
03 13:35 S 6 10.00 Fair CLR 64.4 35.6 34% 30.14 0.0
03 13:15 SW 8 10.00 Fair CLR 64.4 33.8 32% 30.15 0.0
03 12:55 S 5 10.00 Fair CLR 62.6 33.8 34% 30.16 0.0
03 12:35 S 5 10.00 Fair CLR 62.6 35.6 37% 30.16 0.0
03 12:15 S 3 10.00 Fair CLR 62.6 35.6 37% 30.17 0.0
03 11:50 S 5 10.00 Fair CLR 60.8 37.4 42% 30.18 0.0
03 11:35 N 5 10.00 Fair CLR 60.8 35.6 39% 30.18 0.0
03 11:15 NE 5 10.00 Fair CLR 60.8 37.4 42% 30.18 0.0
03 10:55 N 3 10.00 Fair CLR 59 37.4 45% 30.18 0.0
03 10:35 N 5 10.00 Fair CLR 59 37.4 45% 30.18 0.0
03 10:15 N 10 10.00 Fair CLR 57.2 37.4 48% 30.17 0.0
03 09:55 N 10 10.00 Fair CLR 55.4 35.6 47% 30.17 0.0
03 09:35 N 10 10.00 Fair CLR 55.4 37.4 51% 30.16 0.0
03 09:15 N 10 10.00 Fair CLR 53.6 37.4 54% 30.16 0.0
03 08:55 N 7 10.00 Fair CLR 51.8 41 67% 30.16 0.0
03 08:35 N 7 10.00 Fair CLR 51.8 41 67% 30.16 0.0
03 08:15 N 6 10.00 Fair CLR 50 41 71% 48 30.16 0.0
03 07:55 N 5 10.00 Fair CLR 48.2 41 76% 47 30.15 0.0
03 07:35 Calm 10.00 Fair CLR 46.4 41 82% 30.14 0.0
03 07:15 N 6 10.00 Fair CLR 44.6 39.2 81% 42 30.14 0.0
03 06:35 N 5 10.00 Fair CLR 44.6 41 87% 43 30.11 0.0
03 06:15 N 5 10.00 Fair CLR 44.6 41 87% 43 30.11 0.0
03 05:55 N 6 10.00 Fair CLR 44.6 42.8 93% 42 30.1 0.0
03 05:35 Calm 10.00 Fair CLR 44.6 42.8 93% 30.09 0.0
03 05:15 Calm 10.00 Fair CLR 44.6 42.8 93% 30.09 0.0
03 04:55 Calm 10.00 Fair CLR 44.6 42.8 93% 30.08 0.0
03 04:35 Calm 5.00 Fog/Mist CLR 46.4 44.6 93% 30.08 0.0
03 04:15 Calm 0.50 Fog VV005 46.4 44.6 93% 30.07 0.0
03 03:55 Calm 7.00 Fair CLR 46.4 44.6 93% 30.07 0.0
03 03:35 Calm 4.00 Fog/Mist CLR 46.4 44.6 93% 30.06 0.0
03 03:15 Calm 0.50 Fog VV005 46.4 44.6 93% 30.06 0.0
03 02:55 Calm 7.00 Fair CLR 48.2 46.4 94% 30.05 0.0
03 02:35 Calm 10.00 Fair CLR 50 46.4 88% 30.05 0.0
03 02:15 Calm 10.00 Fair CLR 50 46.4 88% 30.05 0.0
03 01:55 SW 3 10.00 Fair CLR 50 46.4 88% 30.05 0.0
03 01:35 Calm 10.00 Fair CLR 50 46.4 88% 30.05 0.0
03 01:15 Calm 10.00 Fair CLR 51.8 48.2 88% 30.05 0.0
03 00:55 Calm 10.00 Fair CLR 51.8 48.2 88% 30.05 0.0
03 00:35 W 3 10.00 Fair CLR 51.8 50 94% 30.04 0.0
Date Time (edt) Wind (mph) Vis. (mi.) Weather Sky Cond. Air Dwpt Max. Min. Relative Humidity Wind Chill (°F) Heat Index (°F) altimeter (in) sea level (mb) 1 hr 3 hr 6 hr
6 hour
Temperature (ºF) Pressure Precipitation (in)